DW4252 Weather Reports


time (UTC)temp
C
wind
direction
speed
KPH
gust
KPH
rain 1hr
cm
rain 24hr
cm
rain mn
cm
humidity
%
barometer
mb
20260507225004 7 63 1.6 3.2 0.00 0.00 0.00 84 1016.7
20260507223004 7 45 1.6 6.4 0.00 0.00 0.00 84 1016.7
20260507222003 7 50 1.6 3.2 0.00 0.00 0.00 84 1016.6
20260507220004 7 54 1.6 4.8 0.00 0.00 0.00 83 1016.8
20260507213003 8 60 1.6 3.2 0.00 0.00 0.00 82 1017.0
20260507212004 8 63 3.2 4.8 0.00 0.00 0.00 81 1016.8
20260507205003 9 0 0.0 0.0 0.00 0.00 0.00 79 1017.0
20260507204004 9 72 1.6 3.2 0.00 0.00 0.00 78 1016.9
20260507203004 9 80 1.6 3.2 0.00 0.00 0.00 77 1016.7
20260507202003 10 86 1.6 6.4 0.00 0.00 0.00 77 1016.5
20260507201004 10 88 4.8 6.4 0.00 0.00 0.00 76 1016.4
20260507200004 10 85 4.8 8.0 0.00 0.00 0.00 75 1016.0
20260507195004 10 82 3.2 6.4 0.00 0.00 0.00 74 1016.0
20260507194004 10 76 3.2 6.4 0.00 0.00 0.00 74 1016.1
20260507193005 11 69 3.2 4.8 0.00 0.00 0.00 73 1016.0
20260507192004 11 66 1.6 4.8 0.00 0.00 0.00 73 1016.0
20260507191005 11 66 4.8 6.4 0.00 0.00 0.00 72 1016.1
20260507185004 12 93 3.2 6.4 0.00 0.00 0.00 66 1015.9
20260507184005 12 123 3.2 6.4 0.00 0.00 0.00 66 1015.9
20260507183004 12 150 3.2 4.8 0.00 0.00 0.00 66 1015.8
20260507182004 13 167 3.2 6.4 0.00 0.00 0.00 66 1015.9
20260507181004 13 173 4.8 9.7 0.00 0.00 0.00 66 1015.8
20260507180005 13 173 6.4 9.7 0.00 0.00 0.00 66 1015.8
20260507175005 13 172 6.4 9.7 0.00 0.00 0.00 66 1015.9
20260507174008 14 174 6.4 12.9 0.00 0.00 0.00 65 1015.8
20260507172005 15 166 4.8 8.0 0.00 0.00 0.00 64 1015.9
20260507171005 15 167 6.4 9.7 0.00 0.00 0.00 64 1016.0
20260507170005 15 159 6.4 9.7 0.00 0.00 0.00 64 1016.0
20260507165004 15 163 6.4 14.5 0.00 0.00 0.00 65 1015.8
20260507164004 15 159 8.0 11.3 0.00 0.00 0.00 65 1015.8
20260507163005 15 161 6.4 11.3 0.00 0.00 0.00 64 1015.9
20260507162005 15 165 6.4 11.3 0.00 0.00 0.00 65 1015.8
20260507161005 15 157 4.8 6.4 0.00 0.00 0.00 65 1016.1
20260507160005 14 164 6.4 11.3 0.00 0.00 0.00 65 1016.0
20260507155005 14 163 3.2 8.0 0.00 0.00 0.00 66 1016.1
20260507154005 14 128 3.2 6.4 0.00 0.00 0.00 67 1016.2
20260507153005 14 114 4.8 11.3 0.00 0.00 0.00 68 1016.4
20260507152005 13 90 3.2 6.4 0.00 0.00 0.00 68 1016.2
20260507151005 13 73 4.8 9.7 0.00 0.00 0.00 68 1016.2
20260507145005 14 77 6.4 11.3 0.00 0.00 0.00 67 1016.2
20260507144004 14 80 6.4 14.5 0.00 0.00 0.00 67 1016.2
20260507142005 14 77 8.0 12.9 0.00 0.00 0.00 65 1016.2
20260507141004 14 84 6.4 11.3 0.00 0.00 0.00 65 1016.2
20260507140006 13 90 6.4 11.3 0.00 0.00 0.00 65 1016.3
20260507135005 13 93 3.2 6.4 0.00 0.00 0.00 67 1016.5
20260507134005 13 91 4.8 8.0 0.00 0.00 0.00 67 1016.4
20260507133005 13 71 3.2 8.0 0.00 0.00 0.00 67 1016.4
20260507132004 13 68 3.2 6.4 0.00 0.00 0.00 68 1016.4
20260507131005 13 86 1.6 6.4 0.00 0.00 0.00 68 1016.4
20260507125005 12 147 0.0 4.8 0.00 0.00 0.00 69 1016.4
20260507123004 12 72 1.6 3.2 0.00 0.00 0.00 69 1016.4
20260507122005 12 74 1.6 3.2 0.00 0.00 0.00 67 1016.5
20260507121005 12 73 3.2 4.8 0.00 0.00 0.00 67 1016.7
20260507120005 13 81 1.6 3.2 0.00 0.00 0.00 67 1016.5
20260507115004 13 89 3.2 6.4 0.00 0.00 0.00 66 1016.8
20260507114006 13 61 1.6 6.4 0.00 0.00 0.00 66 1016.6
20260507113006 13 72 1.6 4.8 0.00 0.00 0.00 66 1016.5
20260507112005 13 86 3.2 6.4 0.00 0.00 0.00 65 1016.6
20260507111005 13 90 4.8 8.0 0.00 0.00 0.00 65 1016.6
20260507110005 13 124 4.8 9.7 0.00 0.00 0.00 64 1016.7
20260507105005 13 122 3.2 8.0 0.00 0.00 0.00 64 1016.7
20260507104005 13 104 3.2 4.8 0.00 0.00 0.00 65 1016.8
20260507102007 13 98 3.2 8.0 0.00 0.00 0.00 64 1016.8
20260507101005 13 82 4.8 8.0 0.00 0.00 0.00 64 1017.0
20260507095005 13 12 3.2 4.8 0.00 0.00 0.00 64 1016.6
20260507094005 13 63 1.6 4.8 0.00 0.00 0.00 64 1016.8
20260507093005 13 64 3.2 6.4 0.00 0.00 0.00 64 1016.7
20260507092005 13 71 3.2 9.7 0.00 0.00 0.00 65 1016.8
20260507091004 13 73 8.0 14.5 0.00 0.00 0.00 67 1016.7
20260507085005 13 75 6.4 9.7 0.00 0.00 0.00 72 1016.6
20260507084006 12 77 4.8 8.0 0.00 0.00 0.00 74 1016.7
20260507083005 12 84 6.4 9.7 0.00 0.00 0.00 75 1016.8
20260507082005 11 86 4.8 11.3 0.00 0.00 0.00 79 1016.8
20260507081004 11 86 8.0 14.5 0.00 0.00 0.00 79 1016.6
20260507080005 11 85 6.4 11.3 0.00 0.00 0.00 80 1016.6
20260507075004 11 88 6.4 11.3 0.00 0.00 0.00 82 1016.6
20260507073005 10 93 8.0 14.5 0.00 0.00 0.00 85 1016.5
20260507072005 10 162 3.2 8.0 0.00 0.00 0.00 86 1016.4
20260507070009 9 228 1.6 3.2 0.00 0.00 0.00 86 1016.2
20260507065005 9 208 3.2 4.8 0.00 0.00 0.00 86 1016.2
20260507064005 8 191 1.6 3.2 0.00 0.00 0.00 85 1016.0
20260507063005 8 143 1.6 3.2 0.00 0.00 0.00 85 1016.1
20260507062005 9 116 3.2 6.4 0.00 0.00 0.00 86 1016.1
20260507060005 9 88 4.8 6.4 0.00 0.00 0.00 86 1016.1
20260507055005 8 76 1.6 4.8 0.00 0.00 0.00 86 1015.8
20260507054005 8 72 1.6 3.2 0.00 0.00 0.00 86 1015.7
20260507053005 8 57 1.6 3.2 0.00 0.00 0.00 85 1015.7
20260507052005 8 60 3.2 6.4 0.00 0.00 0.00 85 1015.6
20260507051005 8 61 4.8 6.4 0.00 0.00 0.00 85 1015.6
20260507050005 8 55 3.2 6.4 0.00 0.00 0.00 85 1015.5
20260507045005 8 55 4.8 6.4 0.00 0.00 0.00 84 1015.7
20260507044005 8 47 3.2 4.8 0.00 0.00 0.00 84 1015.6
20260507043004 8 45 3.2 4.8 0.00 0.00 0.00 84 1015.6
20260507042004 8 45 3.2 4.8 0.00 0.00 0.00 84 1015.5
20260507041004 8 45 3.2 4.8 0.00 0.00 0.00 84 1015.4
20260507040005 8 47 1.6 3.2 0.00 0.00 0.00 84 1015.4
20260507035004 8 56 1.6 3.2 0.00 0.00 0.00 84 1015.5
20260507034004 8 60 1.6 3.2 0.00 0.00 0.00 84 1015.6
20260507032004 8 68 1.6 3.2 0.00 0.00 0.00 84 1015.7
20260507031004 8 57 1.6 3.2 0.00 0.00 0.00 83 1015.5
20260507030004 8 0 0.0 0.0 0.00 0.00 0.00 83 1015.6
20260507025005 8 0 0.0 0.0 0.00 0.00 0.00 83 1015.5
20260507023004 8 0 0.0 0.0 0.00 0.00 0.00 82 1015.3
20260507022004 8 90 0.0 1.6 0.00 0.00 0.00 81 1015.3
20260507021004 9 270 0.0 1.6 0.00 0.00 0.00 81 1015.2
20260507020005 9 0 0.0 0.0 0.00 0.00 0.00 80 1015.1
20260507015005 9 270 0.0 3.2 0.00 0.00 0.00 80 1015.1
20260507014004 9 274 1.6 3.2 0.00 0.00 0.00 80 1015.2
20260507013004 9 303 3.2 4.8 0.00 0.00 0.00 79 1015.2
20260507012004 9 28 1.6 3.2 0.00 0.00 0.00 79 1015.3
20260507010005 10 36 1.6 3.2 0.00 0.00 0.00 78 1015.2
20260507005004 10 26 1.6 3.2 0.00 0.00 0.00 78 1015.1
20260507004005 10 28 1.6 3.2 0.00 0.00 0.00 78 1015.1
20260507003005 10 36 1.6 3.2 0.00 0.00 0.00 78 1015.1
20260507002005 10 58 1.6 3.2 0.00 0.00 0.00 77 1014.9
20260507000005 10 71 3.2 4.8 0.00 0.00 0.00 77 1015.0
20260506235004 10 74 3.2 6.4 0.00 0.00 0.00 76 1015.0
20260506234004 10 70 3.2 6.4 0.00 0.00 0.00 76 1015.1
20260506233004 10 61 3.2 6.4 0.00 0.00 0.00 76 1015.1
20260506232004 10 45 1.6 4.8 0.00 0.00 0.00 76 1015.1
20260506231004 10 0 0.0 0.0 0.00 0.00 0.00 75 1015.1
20260506230012 10 0 0.0 0.0 0.00 0.00 0.00 75 1015.0